sat.trackr.live / text

‹ back to catalog

STARLINK-33739

NORAD 63572 · 2025-076D

PAYLOAD ACTIVE UNKNOWN

§ Identity

Operator
Country
US
Launch date
2025-04-14
Launch site
AFETR
Launch vehicle
Mass (kg)
RCS (m²)

Purposes: comms

External: N2YO · Heavens-Above · Gunter

§ Orbital elements

Epoch: 2026-09-18T04:02:42.165312Z

Period
94.27 min
Inclination
43.0004°
Eccentricity
0.0001602
Mean motion
15.27582898 rev/d
Perigee alt
481.9 km
Apogee alt
484.1 km
Semi-major
6,861.2 km
B*
3.4594e-4
RAAN
315.0196°
Arg perigee
278.4000°
Mean anomaly
81.6670°
Rev number
8,126

§ Raw data

STARLINK-337391 63572U 25076D   26261.16854358  .00009270  00000+0  34594-3 0  99952 63572  43.0004 315.0196 0001602 278.4000  81.6670 15.27582898 81261

JSON: /api/v1/satellites/63572 · /tle

For live sub-satellite position, see the globe view (requires WebGL).

§ Visibility from observer

Set your observer location to see the next 7 days of passes ≥ 10°. The values pass through the URL so the page stays shareable.

No JS? Fill the form by hand. The geolocation button needs JavaScript.